STARLINK-5457 (55666 NORAD) Tracking and Keplerian Element Data

This shows tracking and keplerian element data for the satellite.

Feedback or suggestion? Click here.




ElementValue
Catalog55666
NameSTARLINK-5457
Epoch Orbit130
Epoch Day62.91667824
Epoch Year2023
RAAN110.1364
Inclination69.9944
Eccentricity0.0003225
Argument of Perigee275.6414
Mean Anonmoly7.3207
Mean Motion15.82081523
Decay Rate0.00229035
L11 55666U 23021AQ 23062.91667824 .00229035 00000+0 10908-2 0 9992
L22 55666 69.9944 110.1364 0003225 275.6414 7.3207 15.82081523 1306



Live tracking and technical data element details for STARLINK-5457 (NORAD 55666). STARLINK-5457 can be tracked NOW for your location showing map with azimuth and elevation plus other details from your city location.







IsCatalogInMostPopularTable: catalog: 55666, numindb: 2
Update: records affected: 1



GetName: 55666 STARLINK-5457

Hit Count: updated at: Wed, 22 Mar 2023 16:39:36 GMT